TimeCST,TemperatureF,Dew PointF,Humidity,Sea Level PressureIn,VisibilityMPH,Wind Direction,Wind SpeedMPH,Gust SpeedMPH,PrecipitationIn,Events,Conditions,WindDirDegrees,DateUTC
12:53 AM,28.0,23.0,81,30.46,10.0,East,4.6,-,N/A,,Clear,80,2013-11-30 06:53:00
1:53 AM,30.0,25.0,82,30.46,10.0,ENE,3.5,-,N/A,,Clear,70,2013-11-30 07:53:00
2:53 AM,30.0,25.0,82,30.47,10.0,Calm,Calm,-,N/A,,Clear,0,2013-11-30 08:53:00
3:53 AM,28.9,25.0,85,30.47,10.0,Calm,Calm,-,N/A,,Clear,0,2013-11-30 09:53:00
4:53 AM,28.0,24.1,85,30.47,10.0,Calm,Calm,-,N/A,,Clear,0,2013-11-30 10:53:00
5:53 AM,28.9,25.0,85,30.48,10.0,Calm,Calm,-,N/A,,Clear,0,2013-11-30 11:53:00
6:53 AM,30.9,27.0,85,30.49,10.0,Calm,Calm,-,N/A,,Clear,0,2013-11-30 12:53:00
7:53 AM,39.0,32.0,76,30.51,10.0,Calm,Calm,-,N/A,,Clear,0,2013-11-30 13:53:00
8:53 AM,46.0,30.0,54,30.51,10.0,East,13.8,-,N/A,,Clear,80,2013-11-30 14:53:00
9:53 AM,51.1,28.9,43,30.51,10.0,ENE,8.1,-,N/A,,Clear,70,2013-11-30 15:53:00
10:53 AM,54.0,30.0,40,30.48,10.0,Variable,5.8,-,N/A,,Clear,0,2013-11-30 16:53:00
11:53 AM,57.9,32.0,37,30.44,10.0,ENE,5.8,-,N/A,,Clear,70,2013-11-30 17:53:00
12:53 PM,61.0,30.9,32,30.41,10.0,NNE,4.6,-,N/A,,Clear,30,2013-11-30 18:53:00
1:53 PM,63.0,30.0,29,30.36,10.0,Calm,Calm,-,N/A,,Clear,0,2013-11-30 19:53:00
2:53 PM,64.0,30.9,29,30.34,10.0,Variable,3.5,-,N/A,,Clear,0,2013-11-30 20:53:00
3:53 PM,63.0,32.0,31,30.32,10.0,Calm,Calm,-,N/A,,Clear,0,2013-11-30 21:53:00
4:53 PM,57.0,33.1,40,30.32,10.0,Calm,Calm,-,N/A,,Clear,0,2013-11-30 22:53:00
5:53 PM,50.0,34.0,54,30.32,10.0,Calm,Calm,-,N/A,,Clear,0,2013-11-30 23:53:00
6:53 PM,48.0,34.0,58,30.33,10.0,East,4.6,-,N/A,,Clear,100,2013-12-01 00:53:00
7:53 PM,46.0,36.0,68,30.33,10.0,East,4.6,-,N/A,,Clear,90,2013-12-01 01:53:00
8:53 PM,45.0,37.0,74,30.32,10.0,East,4.6,-,N/A,,Clear,90,2013-12-01 02:53:00
9:53 PM,45.0,37.0,74,30.32,10.0,East,3.5,-,N/A,,Clear,80,2013-12-01 03:53:00
10:53 PM,45.0,37.0,74,30.31,10.0,East,3.5,-,N/A,,Clear,80,2013-12-01 04:53:00
11:53 PM,41.0,35.1,79,30.32,10.0,North,3.5,-,N/A,,Clear,10,2013-12-01 05:53:00